Regional Weather Roundup
Issued by NWS

Home | Current Version | Previous Version | Graphics & Text | Print | Product List | Glossary On
Versions: 1 2 3 4 5 6 7 8 9 10 11 12 13 14 15 16 17 18 19 20 21 22 23 24 25 26 27 28 29 30 31 32 33 34 35 36 37 38 39 40 41 42 43 44 45 46 47 48 49 50
000
ASUS45 KABQ 151610
RWRNM
WEATHER ROUNDUP FOR NEW MEXICO
NATIONAL WEATHER SERVICE ALBUQUERQUE NM
1000 AM MDT MON SEP 15 2014

NOTE: "FAIR" MEANS FEW OR NO CLOUDS BELOW 12,000 FEET AGL WITH NO
       SIGNIFICANT WEATHER OR OBSTRUCTIONS TO VISION.

      THIS PRODUCT IS RELEASED AS TWO VERSIONS.  ONE VERSION NEAR
      THE TOP OF THE HOUR CONTAINING PRELIMINARY DATA FROM ALBUQUERQUE
      AND OTHER STATIONS.  A FINAL VERSION WITH ADDITIONAL DATA IS
      ISSUED ABOUT 10 MINUTES AFTER THE HOUR.

NMZ501-503-504-510>518-151700-
NORTHWEST PLATEAU/NORTHCENTRAL MOUNTAINS

CITY           SKY/WX    TMP DP  RH WIND       PRES   REMARKS
FARMINGTON     SUNNY     70  49  47 E7        30.26R
LOS ALAMOS     SUNNY     66  50  57 CALM      30.37S
SANTA FE       SUNNY     69  50  50 N9        30.31R
ANGEL FIRE     FAIR      59  45  59 CALM      30.46S

$$
NMZ402-403-502-505>509-151700-
WESTCENTRAL MOUNTAINS/SOUTHWEST MOUNTAINS

CITY           SKY/WX    TMP DP  RH WIND       PRES   REMARKS
GALLUP         SUNNY     67  46  47 SW3       30.31S
GRANTS         SUNNY     66  50  55 CALM      30.34S
SILVER CITY    MOSUNNY   68  55  64 E9        30.28R

$$
NMZ407-409-411-412-151700-
SOUTHERN DESERTS

CITY           SKY/WX    TMP DP  RH WIND       PRES   REMARKS
LORDSBURG      FAIR      73  55  53 SE15G21   30.18S
DEMING         SUNNY     72  58  61 E9        30.20R
LAS CRUCES     SUNNY     72  58  60 E6        30.23R
HOLLOMAN AFB   SUNNY     71  59  65 CALM      30.20S
ALAMOGORDO     SUNNY     72  57  60 NW5       30.22S
T OR C         SUNNY     71  57  61 VRB3      30.23R

$$
NMZ519>523-151700-
CENTRAL VALLEYS/CENTRAL HIGHLANDS

CITY           SKY/WX    TMP DP  RH WIND       PRES   REMARKS
ALBUQUERQUE    MOSUNNY   69  55  60 S8        30.28R
DOUBLE EAGLE   MOSUNNY   68  54  60 VRB5      30.31R
MORIARTY ARPT  FAIR      64  56  73 CALM      30.33R
CLINES CORNERS SUNNY     66  53  63 W12       30.34R
BELEN          FAIR      69  56  64 S7        30.27R
SOCORRO        FAIR      71  58  63 SE7       30.24S

$$
NMZ524>526-539-540-151700-
SOUTHCENTRAL MOUNTAINS

CITY           SKY/WX    TMP DP  RH WIND       PRES   REMARKS
RUIDOSO        SUNNY     64  54  68 CALM      30.36S

$$
NMZ527>531-151700-
NORTHEAST HIGHLANDS/NORTHEAST PLAINS

CITY           SKY/WX    TMP DP  RH WIND       PRES   REMARKS
LAS VEGAS      SUNNY     70  51  51 NE8       30.33R
RATON          SUNNY     72  43  35 N15       30.29R
CLAYTON        SUNNY     67  53  61 N21       30.26R

$$
NMZ532>537-151700-
EASTCENTRAL PLAINS

CITY           SKY/WX    TMP DP  RH WIND       PRES   REMARKS
TUCUMCARI      CLOUDY    67  57  70 SW15      30.21R
CANNON AFB     NOT AVBL
CLOVIS AIRPORT   N/A     64  57  77 SW10G17   30.27R

$$
NMZ028-029-538-151700-
SOUTHEAST PLAINS

CITY           SKY/WX    TMP DP  RH WIND       PRES   REMARKS
ROSWELL        CLOUDY    64  61  90 S7        30.22S
CARLSBAD       CLOUDY    66  66 100 VRB5      30.20R
HOBBS          CLOUDY    64  64 100 SE7       30.24R


$$



USA.gov is the U.S. government's official web portal to all federal, state and local government web resources and services.